Location: Monteux
(44.0348°N, 4.9972°E)
Time: 09:18:34
(UTC+00:00)

M6P - Visible Passes

Search period start: 16 June 2021 00:00
Search period end: 26 June 2021 00:00
Orbit: 429 x 505 km, 97.4° (Epoch: 15 June)

Date Brightness Start Highest point End Pass type
(mag) Time Alt. Az. Time Alt. Az. Time Alt. Az.
16 Jun ? 21:44:07 51° SSE 21:44:51 77° ENE 21:48:15 10° N visible
17 Jun ? 21:14:01 23° ESE 21:15:11 30° ENE 21:18:12 10° N visible
17 Jun ? 22:48:01 15° W 22:48:23 15° W 22:50:26 10° NW visible
18 Jun ? 20:43:56 10° E 20:45:39 14° ENE 20:47:28 10° NNE visible
18 Jun ? 22:17:56 33° WSW 22:18:25 35° W 22:21:35 10° NNW visible
19 Jun ? 21:47:50 52° SSE 21:48:35 86° ENE 21:52:01 10° NNW visible
20 Jun ? 21:17:44 25° ESE 21:18:54 33° ENE 21:22:01 10° N visible
20 Jun ? 22:51:44 14° W 22:52:08 14° W 22:54:01 10° WNW visible
21 Jun ? 20:47:38 11° E 20:49:20 15° ENE 20:51:26 10° NNE visible
21 Jun ? 22:21:38 30° WSW 22:22:09 32° W 22:25:17 10° NNW visible
22 Jun ? 21:51:32 52° S 21:52:18 85° W 21:55:46 10° NNW visible
23 Jun ? 21:21:25 28° ESE 21:22:34 37° ENE 21:25:49 10° N visible
23 Jun ? 22:55:25 13° W 22:55:52 13° W 22:57:31 10° WNW visible
24 Jun ? 20:51:19 13° E 20:53:00 17° ENE 20:55:19 10° NNE visible
24 Jun ? 22:25:19 28° WSW 22:25:51 29° W 22:28:57 10° NNW visible
25 Jun ? 21:55:12 51° S 21:55:58 76° WSW 21:59:29 10° NNW visible
